• In Hungary
  • List of Countries
  • For 7 days
  • Water Temperature
  • Satellite Maps
  • Weather Map
  • News
  • Weather Widgets
  • user-avatar
    Login

    Hourly Weather Baharevo

    Today, 20 April, Friday

    Time Temperature Precipitation Wind Pressure Humidity
    00:00 +5°C° 0 mm 3 mps 744 mmHg 88%
    01:00 +4°C° 0 mm 3 mps 745 mmHg 91%
    02:00 +5°C° 0 mm 2 mps 745 mmHg 95%
    03:00 +5°C° 0 mm 2 mps 745 mmHg 95%
    04:00 +4°C° 0 mm 3 mps 745 mmHg 95%
    05:00 +3°C° 0 mm 3 mps 746 mmHg 96%
    06:00 +4°C° 0 mm 3 mps 746 mmHg 92%
    07:00 +5°C° 0 mm 3 mps 746 mmHg 88%
    08:00 +7°C° 0 mm 3 mps 746 mmHg 85%
    09:00 +7°C° 0 mm 3 mps 746 mmHg 81%
    10:00 +8°C° 0 mm 3 mps 746 mmHg 77%
    11:00 +8°C° 0 mm 3 mps 747 mmHg 73%
    12:00 +9°C° 0 mm 2 mps 746 mmHg 70%
    13:00 +9°C° 0 mm 2 mps 746 mmHg 67%
    14:00 +12°C° 0 mm 2 mps 745 mmHg 64%
    15:00 +12°C° 0.1 mm 2 mps 745 mmHg 66%
    16:00 +12°C° 0.1 mm 1 mps 745 mmHg 69%
    17:00 +10°C° 0.1 mm 0 mps 744 mmHg 71%
    18:00 +10°C° 0.2 mm 1 mps 744 mmHg 76%
    19:00 +9°C° 0.2 mm 1 mps 743 mmHg 81%
    20:00 +7°C° 0.2 mm 2 mps 743 mmHg 87%
    21:00 +7°C° 0.3 mm 2 mps 742 mmHg 88%
    22:00 +7°C° 0.3 mm 2 mps 741 mmHg 89%
    23:00 +7°C° 0.3 mm 3 mps 740 mmHg 90%

    Tomorrow, 21 April, Saturday

    Time Temperature Precipitation Wind Pressure Humidity
    00:00 +7°C° 0.1 mm 3 mps 739 mmHg 89%
    01:00 +7°C° 0.1 mm 3 mps 738 mmHg 88%
    02:00 +6°C° 0.1 mm 4 mps 737 mmHg 87%
    03:00 +7°C° 0.2 mm 4 mps 736 mmHg 89%
    04:00 +7°C° 0.2 mm 4 mps 735 mmHg 91%
    05:00 +7°C° 0.2 mm 4 mps 734 mmHg 93%
    06:00 +7°C° 0.1 mm 4 mps 734 mmHg 91%
    07:00 +8°C° 0.1 mm 4 mps 733 mmHg 90%
    08:00 +10°C° 0.1 mm 4 mps 732 mmHg 89%
    09:00 +10°C° 0.5 mm 4 mps 731 mmHg 87%
    10:00 +10°C° 0.5 mm 5 mps 729 mmHg 85%
    11:00 +10°C° 0.5 mm 5 mps 728 mmHg 83%
    12:00 +10°C° 0.5 mm 5 mps 727 mmHg 82%
    13:00 +12°C° 0.5 mm 5 mps 726 mmHg 81%
    14:00 +12°C° 0.5 mm 5 mps 725 mmHg 80%
    15:00 +11°C° 0.8 mm 6 mps 725 mmHg 79%
    16:00 +10°C° 0.8 mm 6 mps 724 mmHg 78%
    17:00 +9°C° 0.8 mm 6 mps 724 mmHg 77%
    18:00 +8°C° 0.2 mm 6 mps 724 mmHg 78%
    19:00 +6°C° 0.2 mm 7 mps 724 mmHg 79%
    20:00 +4°C° 0.2 mm 7 mps 725 mmHg 80%
    21:00 +4°C° 0.5 mm 8 mps 725 mmHg 81%
    22:00 +2°C° 0.5 mm 8 mps 726 mmHg 81%
    23:00 +1°C° 0.5 mm 9 mps 726 mmHg 81%

    Day after tomorrow, 22 April, Sunday

    Time Temperature Precipitation Wind Pressure Humidity
    00:00 +1°C° 0.2 mm 8 mps 727 mmHg 81%
    01:00 0°C° 0.2 mm 8 mps 728 mmHg 82%
    02:00 0°C° 0.2 mm 7 mps 729 mmHg 82%
    03:00 -1°C° 0.1 mm 7 mps 730 mmHg 82%
    04:00 -1°C° 0.1 mm 6 mps 730 mmHg 82%
    05:00 -1°C° 0.1 mm 6 mps 731 mmHg 81%
    06:00 -1°C° 0 mm 6 mps 732 mmHg 80%
    07:00 -1°C° 0 mm 6 mps 732 mmHg 78%
    08:00 -1°C° 0 mm 6 mps 733 mmHg 77%
    09:00 -1°C° 0.1 mm 6 mps 734 mmHg 74%
    10:00 0°C° 0.1 mm 5 mps 734 mmHg 72%
    11:00 +1°C° 0.1 mm 5 mps 735 mmHg 69%
    12:00 +1°C° 0.1 mm 5 mps 735 mmHg 68%
    13:00 +1°C° 0.1 mm 5 mps 736 mmHg 66%
    14:00 +1°C° 0.1 mm 5 mps 736 mmHg 65%
    15:00 +1°C° 0.1 mm 5 mps 737 mmHg 66%
    16:00 +1°C° 0.1 mm 5 mps 737 mmHg 66%
    17:00 0°C° 0.1 mm 5 mps 738 mmHg 67%
    18:00 0°C° 0.1 mm 4 mps 738 mmHg 69%
    19:00 -1°C° 0.1 mm 4 mps 739 mmHg 71%
    20:00 -1°C° 0.1 mm 3 mps 739 mmHg 74%
    21:00 -1°C° 0 mm 3 mps 740 mmHg 76%
    22:00 -2°C° 0 mm 3 mps 740 mmHg 77%
    23:00 -2°C° 0 mm 3 mps 740 mmHg 79%

    23 April, Monday

    Time Temperature Precipitation Wind Pressure Humidity
    00:00 -4°C° 0 mm 3 mps 741 mmHg 81%
    01:00 -4°C° 0 mm 3 mps 741 mmHg 83%
    02:00 -5°C° 0 mm 3 mps 742 mmHg 84%
    03:00 -5°C° 0 mm 3 mps 742 mmHg 84%
    04:00 -5°C° 0 mm 3 mps 742 mmHg 83%
    05:00 -5°C° 0 mm 3 mps 743 mmHg 82%
    06:00 -3°C° 0 mm 4 mps 743 mmHg 72%
    07:00 -2°C° 0 mm 4 mps 743 mmHg 62%
    08:00 -1°C° 0 mm 4 mps 744 mmHg 52%
    09:00 0°C° 0 mm 4 mps 744 mmHg 50%
    10:00 +1°C° 0 mm 4 mps 744 mmHg 47%
    11:00 +3°C° 0 mm 4 mps 744 mmHg 44%
    12:00 +4°C° 0 mm 4 mps 744 mmHg 44%
    13:00 +4°C° 0 mm 4 mps 744 mmHg 43%
    14:00 +5°C° 0 mm 4 mps 744 mmHg 43%
    15:00 +5°C° 0 mm 3 mps 744 mmHg 45%
    16:00 +4°C° 0 mm 3 mps 744 mmHg 47%
    17:00 +4°C° 0 mm 3 mps 744 mmHg 49%
    18:00 +4°C° 0 mm 2 mps 744 mmHg 55%
    19:00 +3°C° 0 mm 1 mps 744 mmHg 61%
    20:00 +2°C° 0 mm 1 mps 744 mmHg 67%
    21:00 0°C° 0 mm 0 mps 744 mmHg 68%
    22:00 0°C° 0 mm 0 mps 744 mmHg 70%
    23:00 -1°C° 0 mm 0 mps 745 mmHg 71%

    24 April, Tuesday

    Time Temperature Precipitation Wind Pressure Humidity
    00:00 0°C° 0 mm 1 mps 745 mmHg 73%
    01:00 0°C° 0 mm 1 mps 745 mmHg 74%
    02:00 0°C° 0 mm 1 mps 745 mmHg 75%
    03:00 0°C° 0 mm 1 mps 745 mmHg 74%
    04:00 0°C° 0 mm 1 mps 744 mmHg 74%
    05:00 -2°C° 0 mm 2 mps 744 mmHg 73%
    06:00 +1°C° 0 mm 2 mps 744 mmHg 66%
    07:00 +3°C° 0 mm 2 mps 744 mmHg 58%
    08:00 +4°C° 0 mm 3 mps 744 mmHg 51%
    09:00 +5°C° 0 mm 3 mps 744 mmHg 47%
    10:00 +7°C° 0 mm 3 mps 743 mmHg 44%
    11:00 +8°C° 0 mm 4 mps 743 mmHg 40%
    12:00 +8°C° 0 mm 4 mps 743 mmHg 40%
    13:00 +10°C° 0 mm 4 mps 742 mmHg 40%
    14:00 +10°C° 0 mm 4 mps 742 mmHg 40%
    15:00 +10°C° 0 mm 3 mps 741 mmHg 44%
    16:00 +9°C° 0 mm 3 mps 741 mmHg 48%
    17:00 +9°C° 0 mm 3 mps 741 mmHg 52%
    18:00 +7°C° 0 mm 3 mps 740 mmHg 57%
    19:00 +5°C° 0 mm 3 mps 740 mmHg 62%
    20:00 +4°C° 0 mm 3 mps 740 mmHg 68%
    21:00 +4°C° 0.1 mm 3 mps 739 mmHg 70%
    22:00 +3°C° 0.1 mm 3 mps 739 mmHg 73%
    23:00 +3°C° 0.1 mm 3 mps 739 mmHg 76%

    25 April, Wednesday

    Time Temperature Precipitation Wind Pressure Humidity
    00:00 +3°C° 0.2 mm 3 mps 739 mmHg 78%
    01:00 +3°C° 0.2 mm 3 mps 738 mmHg 81%
    02:00 +3°C° 0.2 mm 3 mps 738 mmHg 84%
    03:00 +3°C° 0.3 mm 4 mps 737 mmHg 86%
    04:00 +3°C° 0.3 mm 4 mps 737 mmHg 88%
    05:00 +3°C° 0.3 mm 4 mps 737 mmHg 91%
    06:00 +4°C° 0.2 mm 4 mps 737 mmHg 90%
    07:00 +4°C° 0.2 mm 4 mps 736 mmHg 89%
    08:00 +5°C° 0.2 mm 4 mps 736 mmHg 89%
    09:00 +6°C° 0.2 mm 4 mps 736 mmHg 83%
    10:00 +7°C° 0.2 mm 4 mps 736 mmHg 78%
    11:00 +8°C° 0.2 mm 4 mps 736 mmHg 73%
    12:00 +8°C° 0.6 mm 4 mps 735 mmHg 75%
    13:00 +8°C° 0.6 mm 4 mps 735 mmHg 77%
    14:00 +7°C° 0.6 mm 4 mps 734 mmHg 80%
    15:00 +8°C° 0.5 mm 4 mps 734 mmHg 78%
    16:00 +8°C° 0.5 mm 4 mps 733 mmHg 77%
    17:00 +8°C° 0.5 mm 4 mps 733 mmHg 76%
    18:00 +7°C° 0.3 mm 4 mps 733 mmHg 80%
    19:00 +7°C° 0.3 mm 3 mps 733 mmHg 84%
    20:00 +5°C° 0.3 mm 3 mps 733 mmHg 88%
    21:00 +4°C° 0 mm 3 mps 733 mmHg 90%
    22:00 +4°C° 0 mm 3 mps 733 mmHg 91%
    23:00 +3°C° 0 mm 3 mps 733 mmHg 93%
    Show more